Home   Weather   Tokyo   Past weeks
Flag for Japan

Past Weather in Tokyo, Japan — Yesterday and Last 2 Weeks

Now
43 °F

Quite cool.


Feels Like: 40 °F
Forecast: 50 / 37 °F
Wind: 6 mph from Northwest

Location: Tokyo

Current Time: Feb 16, 2019 at 10:43:23 pm

Latest Report: Feb 16, 2019 at 10:00 pm


Visibility: N/A

Pressure: 29.88 "Hg

Humidity: 41%

Dew Point: 21 °F

Location of TokyoLocation

Past Weather in Tokyo — Graph

°F

Tokyo Temperature Yesterday

Maximum temperature yesterday: 41 °F (at 4:00 pm)
Minimum temperature yesterday: 33 °F (at 3:00 am)
Average temperature yesterday: 37 °F

High & Low Weather Summary for the Past Weeks

 TemperatureHumidityPressure
High66 °F (Feb 4, 1:00 pm)100% (Feb 6, 2:00 pm)30.37 "Hg (Feb 6, 2:00 pm)
Low31 °F (Feb 2, 2:00 am)27% (Feb 4, 3:00 pm)29.56 "Hg (Feb 4, 6:00 am)
Average43 °F60%30.08 "Hg
* Reported Feb 1 8:00 pm — Feb 16 8:00 pm, Tokyo. Weather by CustomWeather, © 2019

Note: Actual official high and low records may vary slightly from our data, if they occured in-between our weather recording intervals... More about our weather records

Advertising

Tokyo Weather History for the Previous 24 Hours

Scroll right to see more
 ConditionsComfort  
Time TempWeatherWind HumidityBarometerVisibility
8:00 pm
Sat, Feb 16
47 °FCool.9 mph35%29.84 "HgN/A
7:00 pm48 °FCool.10 mph35%29.81 "HgN/A
6:00 pm51 °FOvercast.8 mph34%29.78 "Hg9 mi
5:00 pm52 °FCool.8 mph36%29.74 "HgN/A
4:00 pm54 °FCool.3 mph41%29.72 "HgN/A
3:00 pm54 °FOvercast.6 mph37%29.72 "Hg9 mi
2:00 pm53 °FCool.2 mph37%29.71 "HgN/A
1:00 pm53 °FCool.3 mph38%29.72 "HgN/A
12:00 pm48 °FPassing clouds.2 mph40%29.75 "Hg9 mi
11:00 am45 °FCool.5 mph47%29.79 "HgN/A
10:00 am44 °FQuite cool.3 mph47%29.82 "HgN/A
9:00 am42 °FPartly sunny.2 mph58%29.83 "Hg9 mi
8:00 am37 °FChilly.6 mph66%29.86 "HgN/A
7:00 am36 °FChilly.5 mph70%29.85 "HgN/A
6:00 am36 °FOvercast.3 mph75%29.85 "Hg9 mi
5:00 am37 °FChilly.2 mph72%29.86 "HgN/A
4:00 am37 °FChilly.3 mph73%29.88 "HgN/A
3:00 am38 °FOvercast.3 mph73%29.88 "Hg9 mi
2:00 am38 °FChilly.5 mph71%29.92 "HgN/A
1:00 am38 °FChilly.5 mph72%29.97 "HgN/A
12:00 am39 °FChilly.2 mph70%29.99 "HgN/A
11:00 pm
Fri, Feb 15
39 °FChilly.3 mph73%29.98 "HgN/A
10:00 pm39 °FChilly.6 mph74%30.04 "HgN/A
Weather by CustomWeather, © 2019

See weather overview